Location: Pacheco
(37.9835°N, 122.0752°W)
Time: 07:08:24
(UTC+00:00)

NOSS 2-2 (E) - Visible Passes

Search period start: 16 July 2024 00:00
Search period end: 26 July 2024 00:00
Orbit: 402 x 1750 km, 63.3° (Epoch: 15 July)

Date Brightness Start Highest point End Pass type
(mag) Time Alt. Az. Time Alt. Az. Time Alt. Az.
16 Jul 6.1 05:41:01 10° W 05:43:04 15° NW 05:45:02 10° N visible
17 Jul 4.2 04:46:19 10° SW 04:49:37 40° NW 04:52:36 10° NNE visible
17 Jul 6.2 12:13:55 10° N 12:18:05 32° NE 12:23:42 10° ESE visible
18 Jul 2.9 03:52:46 10° SSW 03:56:19 58° ESE 03:59:24 10° NE visible
18 Jul 7.0 11:21:35 10° N 11:24:34 17° NE 11:28:07 10° E visible
19 Jul 6.0 04:50:25 10° W 04:52:48 18° NW 04:55:03 10° N visible
19 Jul 4.9 12:16:36 10° NNW 12:21:14 58° ENE 12:27:47 10° SE visible
20 Jul 3.9 03:55:56 10° SW 03:59:22 51° NW 04:02:25 10° NNE visible
20 Jul 6.2 11:23:47 10° N 11:27:48 29° NE 11:33:06 10° ESE visible
21 Jul 7.0 10:31:36 10° NNE 10:34:12 15° NE 10:37:14 10° E visible
21 Jul 4.2 12:19:30 10° NW 12:24:20 81° WSW 12:31:16 10° SSE visible
22 Jul 5.9 03:59:47 10° WSW 04:02:27 21° NW 04:04:57 10° N visible
22 Jul 5.1 11:26:21 10° NNW 11:30:54 50° NE 11:37:17 10° SE visible
23 Jul 6.2 10:33:35 10° N 10:37:26 25° NE 10:42:23 10° ESE visible
23 Jul 4.6 12:22:39 10° NW 12:27:27 46° WSW 12:34:07 10° S visible
24 Jul 6.8 04:05:08 10° NW 04:05:40 10° NW 04:06:11 10° NW visible
24 Jul 6.9 09:41:39 10° NNE 09:43:45 13° NE 09:46:08 10° ENE visible
24 Jul 4.2 11:29:08 10° NNW 11:33:56 89° ENE 11:40:50 10° SSE visible
25 Jul 5.2 10:36:02 10° NNW 10:40:28 44° NE 10:46:39 10° SE visible
25 Jul 5.3 12:26:09 10° WNW 12:30:32 26° WSW 12:36:13 10° S visible
